| time (UTC) | temp C | wind direction | speed KPH | gust KPH | rain 1hr cm | rain 24hr cm | rain mn cm | humidity % | barometer mb |
| 20260507060908 | 6 | 317 | 6.4 | 14.5 | 0.00 | 0.74 | 0.00 | 73 | 1008.2 |
| 20260507055908 | 6 | 328 | 4.8 | 14.5 | 0.00 | 0.76 | 0.00 | 72 | 1008.2 |
| 20260507054908 | 6 | 319 | 4.8 | 14.5 | 0.00 | 0.76 | 0.00 | 75 | 1008.3 |
| 20260507053908 | 6 | 326 | 6.4 | 12.9 | 0.00 | 0.79 | 0.00 | 72 | 1008.3 |
| 20260507052909 | 6 | 321 | 6.4 | 14.5 | 0.00 | 0.79 | 0.00 | 72 | 1008.5 |
| 20260507051907 | 6 | 323 | 6.4 | 16.1 | 0.00 | 0.79 | 0.00 | 71 | 1008.3 |
| 20260507050909 | 6 | 318 | 6.4 | 16.1 | 0.00 | 0.81 | 0.00 | 70 | 1008.4 |
| 20260507045915 | 6 | 315 | 6.4 | 17.7 | 0.00 | 0.84 | 0.00 | 1008.6 | |
| 20260507045909 | 6 | 315 | 6.4 | 17.7 | 0.00 | 0.84 | 0.00 | 71 | 1008.6 |
| 20260507044907 | 6 | 312 | 6.4 | 16.1 | 0.00 | 0.84 | 0.00 | 73 | 1008.2 |
| 20260507043908 | 6 | 319 | 6.4 | 16.1 | 0.00 | 0.86 | 0.00 | 73 | 1008.4 |
| 20260507042909 | 6 | 318 | 6.4 | 17.7 | 0.00 | 0.86 | 0.00 | 70 | 1008.7 |
| 20260507041908 | 6 | 322 | 8.0 | 17.7 | 0.00 | 0.89 | 0.00 | 69 | 1008.6 |
| 20260507040908 | 6 | 314 | 8.0 | 16.1 | 0.00 | 0.91 | 0.00 | 68 | 1008.4 |
| 20260507035908 | 6 | 315 | 8.0 | 16.1 | 0.00 | 0.94 | 0.94 | 68 | 1008.4 |
| 20260507034907 | 6 | 321 | 6.4 | 14.5 | 0.00 | 0.94 | 0.94 | 71 | 1008.2 |
| 20260507033908 | 6 | 317 | 6.4 | 19.3 | 0.00 | 0.97 | 0.94 | 76 | 1008.1 |
| 20260507032907 | 6 | 321 | 4.8 | 11.3 | 0.00 | 0.97 | 0.94 | 78 | 1007.9 |
| 20260507031907 | 6 | 313 | 3.2 | 9.7 | 0.00 | 0.99 | 0.94 | 87 | 1007.7 |
| 20260507030908 | 6 | 316 | 3.2 | 9.7 | 0.00 | 0.99 | 0.94 | 86 | 1007.9 |
| 20260507025907 | 6 | 314 | 4.8 | 9.7 | 0.00 | 1.02 | 0.94 | 90 | 1008.2 |
| 20260507024908 | 6 | 324 | 3.2 | 8.0 | 0.00 | 1.04 | 0.94 | 93 | 1008.3 |
| 20260507023908 | 6 | 295 | 4.8 | 11.3 | 0.00 | 1.07 | 0.94 | 94 | 1008.2 |
| 20260507022907 | 6 | 300 | 4.8 | 11.3 | 0.00 | 1.09 | 0.94 | 94 | 1008.5 |
| 20260507021907 | 6 | 307 | 4.8 | 12.9 | 0.00 | 1.12 | 0.94 | 93 | 1008.1 |
| 20260507020908 | 7 | 314 | 3.2 | 12.9 | 0.00 | 1.14 | 0.94 | 93 | 1008.2 |
| 20260507015907 | 7 | 306 | 3.2 | 12.9 | 0.00 | 1.17 | 0.94 | 92 | 1008.1 |
| 20260507014907 | 7 | 308 | 4.8 | 16.1 | 0.00 | 1.19 | 0.94 | 93 | 1008.1 |
| 20260507013907 | 7 | 300 | 3.2 | 14.5 | 0.00 | 1.19 | 0.94 | 93 | 1008.3 |
| 20260507012910 | 7 | 302 | 3.2 | 14.5 | 0.00 | 0.00 | 0.94 | 92 | 1008.2 |
| 20260507012907 | 7 | 302 | 3.2 | 14.5 | 0.00 | 1.22 | 0.94 | 92 | 1008.2 |
| 20260507011907 | 7 | 328 | 3.2 | 8.0 | 0.00 | 1.22 | 0.94 | 93 | 1008.2 |
| 20260507010907 | 7 | 317 | 3.2 | 9.7 | 0.00 | 1.22 | 0.94 | 93 | 1007.8 |
| 20260507005907 | 7 | 328 | 1.6 | 9.7 | 0.00 | 1.22 | 0.94 | 93 | 1007.8 |
| 20260507004908 | 7 | 316 | 3.2 | 11.3 | 0.00 | 1.22 | 0.94 | 93 | 1007.7 |
| 20260507003908 | 7 | 304 | 3.2 | 16.1 | 0.00 | 1.22 | 0.94 | 93 | 1007.7 |
| 20260507002907 | 7 | 294 | 3.2 | 12.9 | 0.00 | 1.22 | 0.94 | 93 | 1007.5 |
| 20260507001907 | 6 | 298 | 3.2 | 12.9 | 0.00 | 1.24 | 0.94 | 91 | 1007.6 |
| 20260507000909 | 6 | 286 | 4.8 | 12.9 | 0.00 | 1.27 | 0.94 | 90 | 1007.7 |
| 20260506235908 | 6 | 304 | 3.2 | 12.9 | 0.00 | 1.27 | 0.94 | 91 | 1007.5 |
| 20260506234907 | 6 | 313 | 3.2 | 9.7 | 0.00 | 1.30 | 0.94 | 91 | 1007.6 |
| 20260506233907 | 6 | 293 | 4.8 | 12.9 | 0.00 | 1.32 | 0.94 | 92 | 1007.4 |
| 20260506232907 | 6 | 298 | 4.8 | 12.9 | 0.00 | 1.35 | 0.94 | 91 | 1007.2 |
| 20260506231907 | 7 | 296 | 3.2 | 9.7 | 0.00 | 1.35 | 0.94 | 92 | 1007.2 |
| 20260506230908 | 7 | 303 | 3.2 | 12.9 | 0.00 | 1.35 | 0.94 | 91 | 1007.2 |
| 20260506225907 | 7 | 295 | 3.2 | 12.9 | 0.00 | 1.37 | 0.94 | 91 | 1007.0 |
| 20260506224908 | 7 | 306 | 3.2 | 11.3 | 0.00 | 1.37 | 0.94 | 92 | 1007.3 |
| 20260506223907 | 7 | 289 | 3.2 | 11.3 | 0.00 | 1.40 | 0.94 | 91 | 1006.9 |
| 20260506222907 | 7 | 288 | 3.2 | 16.1 | 0.00 | 1.42 | 0.94 | 91 | 1006.9 |
| 20260506221908 | 7 | 295 | 3.2 | 11.3 | 0.00 | 1.42 | 0.94 | 90 | 1006.7 |
| 20260506220914 | 7 | 315 | 1.6 | 8.0 | 0.00 | 1.45 | 0.94 | 90 | 1006.6 |
| 20260506220907 | 7 | 315 | 1.6 | 8.0 | 0.00 | 1.45 | 0.94 | 90 | 1006.6 |
| 20260506215907 | 7 | 311 | 1.6 | 8.0 | 0.00 | 1.45 | 0.94 | 90 | 1006.6 |
| 20260506214907 | 8 | 322 | 1.6 | 6.4 | 0.00 | 1.45 | 0.94 | 91 | 1006.7 |
| 20260506213908 | 7 | 320 | 1.6 | 8.0 | 0.00 | 1.45 | 0.94 | 90 | 1006.8 |
| 20260506212907 | 8 | 311 | 3.2 | 9.7 | 0.00 | 1.45 | 0.94 | 89 | 1006.8 |
| 20260506211907 | 8 | 316 | 1.6 | 8.0 | 0.00 | 1.45 | 0.94 | 88 | 1006.7 |
| 20260506210908 | 8 | 268 | 3.2 | 14.5 | 0.00 | 1.45 | 0.94 | 89 | 1006.6 |
| 20260506205907 | 8 | 282 | 3.2 | 14.5 | 0.00 | 1.45 | 0.94 | 89 | 1006.7 |
| 20260506204907 | 8 | 281 | 3.2 | 12.9 | 0.00 | 1.45 | 0.94 | 88 | 1006.2 |
| 20260506203907 | 8 | 268 | 3.2 | 12.9 | 0.00 | 1.45 | 0.94 | 87 | 1006.4 |
| 20260506202907 | 8 | 270 | 3.2 | 12.9 | 0.00 | 1.45 | 0.94 | 88 | 1006.2 |
| 20260506201907 | 8 | 274 | 3.2 | 12.9 | 0.00 | 1.45 | 0.94 | 88 | 1006.1 |
| 20260506200907 | 8 | 254 | 3.2 | 11.3 | 0.00 | 1.45 | 0.94 | 87 | 1006.1 |
| 20260506195908 | 10 | 298 | 1.6 | 6.4 | 0.00 | 1.45 | 0.94 | 85 | 1006.4 |
| 20260506194907 | 9 | 263 | 1.6 | 12.9 | 0.00 | 1.45 | 0.94 | 87 | 1006.4 |
| 20260506193907 | 9 | 278 | 3.2 | 14.5 | 0.00 | 1.45 | 0.94 | 84 | 1006.4 |
| 20260506192907 | 9 | 277 | 3.2 | 12.9 | 0.00 | 1.45 | 0.94 | 84 | 1006.6 |
| 20260506191907 | 9 | 298 | 3.2 | 8.0 | 0.00 | 1.45 | 0.94 | 84 | 1006.2 |
| 20260506190907 | 9 | 305 | 3.2 | 6.4 | 0.00 | 1.45 | 0.94 | 85 | 1006.7 |
| 20260506185907 | 9 | 343 | 3.2 | 8.0 | 0.00 | 1.45 | 0.94 | 84 | 1005.9 |
| 20260506184907 | 9 | 1 | 3.2 | 8.0 | 0.00 | 1.45 | 0.94 | 81 | 1006.4 |
| 20260506183907 | 9 | 326 | 1.6 | 6.4 | 0.00 | 1.45 | 0.94 | 80 | 1006.4 |
| 20260506182907 | 9 | 344 | 3.2 | 6.4 | 0.00 | 1.45 | 0.94 | 81 | 1006.5 |
| 20260506181907 | 9 | 348 | 1.6 | 6.4 | 0.00 | 1.45 | 0.94 | 84 | 1006.7 |
| 20260506180907 | 8 | 8 | 3.2 | 8.0 | 0.00 | 1.45 | 0.94 | 85 | 1006.6 |
| 20260506175908 | 8 | 352 | 3.2 | 8.0 | 0.00 | 1.45 | 0.94 | 85 | 1006.5 |
| 20260506174907 | 8 | 1 | 3.2 | 9.7 | 0.00 | 1.45 | 0.94 | 87 | 1006.6 |
| 20260506173907 | 8 | 8 | 4.8 | 9.7 | 0.00 | 1.45 | 0.94 | 88 | 1006.2 |
| 20260506172907 | 7 | 6 | 4.8 | 9.7 | 0.00 | 1.45 | 0.94 | 88 | 1006.4 |
| 20260506171907 | 7 | 2 | 3.2 | 9.7 | 0.00 | 1.45 | 0.94 | 89 | 1006.4 |
| 20260506170907 | 8 | 355 | 3.2 | 9.7 | 0.00 | 1.45 | 0.94 | 88 | 1006.6 |
| 20260506165907 | 7 | 2 | 3.2 | 9.7 | 0.00 | 1.45 | 0.94 | 88 | 1006.2 |
| 20260506164907 | 8 | 356 | 3.2 | 9.7 | 0.00 | 1.45 | 0.94 | 89 | 1006.4 |
| 20260506163907 | 7 | 1 | 3.2 | 11.3 | 0.00 | 1.45 | 0.94 | 89 | 1006.1 |
| 20260506162907 | 7 | 10 | 3.2 | 11.3 | 0.00 | 1.45 | 0.94 | 87 | 1006.2 |
| 20260506161908 | 7 | 22 | 3.2 | 8.0 | 0.00 | 1.45 | 0.94 | 88 | 1006.2 |
| 20260506160907 | 8 | 27 | 3.2 | 11.3 | 0.00 | 1.45 | 0.94 | 90 | 1005.8 |
| 20260506155907 | 7 | 7 | 3.2 | 12.9 | 0.00 | 1.45 | 0.94 | 91 | 1006.1 |
| 20260506154907 | 7 | 10 | 3.2 | 8.0 | 0.00 | 1.45 | 0.94 | 91 | 1006.1 |
| 20260506153907 | 7 | 359 | 3.2 | 8.0 | 0.00 | 1.45 | 0.94 | 92 | 1006.4 |
| 20260506152907 | 7 | 357 | 4.8 | 11.3 | 0.00 | 1.45 | 0.94 | 93 | 1006.5 |
| 20260506151907 | 7 | 9 | 4.8 | 11.3 | 0.00 | 1.45 | 0.94 | 93 | 1006.4 |
| 20260506150907 | 7 | 358 | 4.8 | 11.3 | 0.00 | 1.45 | 0.94 | 95 | 1006.5 |
| 20260506145908 | 6 | 358 | 4.8 | 9.7 | 0.00 | 1.45 | 0.94 | 95 | 1006.6 |
| 20260506144907 | 6 | 6 | 4.8 | 9.7 | 0.00 | 1.45 | 0.94 | 96 | 1006.2 |
| 20260506143907 | 6 | 9 | 3.2 | 9.7 | 0.00 | 1.45 | 0.94 | 96 | 1006.4 |
| 20260506142907 | 6 | 350 | 3.2 | 9.7 | 0.00 | 1.45 | 0.94 | 97 | 1006.5 |
| 20260506141907 | 6 | 8 | 3.2 | 9.7 | 0.00 | 1.45 | 0.94 | 97 | 1006.2 |
| 20260506140907 | 6 | 353 | 3.2 | 8.0 | 0.03 | 1.45 | 0.94 | 98 | 1006.4 |
| 20260506135907 | 7 | 343 | 1.6 | 6.4 | 0.03 | 1.45 | 0.94 | 99 | 1006.0 |
| 20260506134909 | 6 | 11 | 3.2 | 11.3 | 0.05 | 1.45 | 0.94 | 99 | 1006.2 |
| 20260506133907 | 6 | 1 | 3.2 | 9.7 | 0.08 | 1.45 | 0.94 | 99 | 1006.0 |
| 20260506132907 | 6 | 15 | 3.2 | 8.0 | 0.08 | 1.45 | 0.94 | 99 | 1005.9 |
| 20260506131907 | 6 | 12 | 3.2 | 9.7 | 0.10 | 1.45 | 0.91 | 99 | 1006.0 |
| 20260506130909 | 6 | 356 | 3.2 | 8.0 | 0.10 | 1.45 | 0.91 | 99 | 1006.0 |
| 20260506125908 | 6 | 19 | 1.6 | 8.0 | 0.10 | 1.42 | 0.91 | 99 | 1005.7 |
| 20260506124908 | 6 | 3 | 3.2 | 8.0 | 0.10 | 1.42 | 0.89 | 99 | 1005.9 |
| 20260506123908 | 6 | 19 | 1.6 | 8.0 | 0.10 | 1.40 | 0.86 | 99 | 1006.1 |
| 20260506122907 | 5 | 11 | 3.2 | 6.4 | 0.08 | 1.37 | 0.86 | 99 | 1006.0 |
| 20260506121908 | 5 | 2 | 3.2 | 8.0 | 0.05 | 1.37 | 0.84 | 99 | 1006.0 |
| 20260506120908 | 5 | 11 | 3.2 | 11.3 | 0.05 | 1.35 | 0.81 | 99 | 1006.0 |
| 20260506115908 | 5 | 9 | 3.2 | 8.0 | 0.05 | 1.32 | 0.79 | 99 | 1006.0 |
| 20260506114908 | 5 | 15 | 3.2 | 6.4 | 0.05 | 1.32 | 0.79 | 99 | 1006.1 |
| 20260506113910 | 5 | 12 | 3.2 | 8.0 | 0.05 | 1.30 | 0.76 | 99 | 1005.8 |
| 20260506112908 | 5 | 8 | 3.2 | 9.7 | 0.05 | 1.30 | 0.76 | 99 | 1006.2 |